Flag Weather past 2 weeks in Timmins, Ontario, Canada

Now
37 °F

Light rain. Fog.


Feels Like: 31 °F
Forecast: 21 / 36 °F
Wind: 9 mph from East

Location: Timmins

Current Time: Nov 24, 2014 at 7:11:44 AM

Latest Report: Nov 24, 2014 at 6:00 AM


Visibility: 3 mi

Pressure: 29.13 "Hg

Humidity: 100%

Dew point: 37 °F

Location of TimminsLocation

Historic Weather in Timmins — Graph

°F

Timmins temperature yesterday

Maximum temperature yesterday: 39 °F (at 7:00 PM)
Minimum temperature yesterday: 30 °F (at 12:00 AM)
Average temperature yesterday: 35 °F

Past Weeks' High & Low Weather Summary

 TemperatureHumidityPressure
High39 °F (Nov 23, 7:00 PM)100% (Nov 10, 9:51 PM)30.26 "Hg (Nov 10, 9:51 PM)
Low-8 °F (Nov 21, 6:00 AM)63% (Nov 14, 1:00 PM)29.13 "Hg (Nov 24, 6:00 AM)
Average19 °F87%29.82 "Hg
* Reported Nov 9 6:00 AM — Nov 24 6:00 AM, Timmins, Weather by CustomWeather, © 2014

Note: Actual official high and low records may vary slightly from our data, if they occured in-between our weather recording intervals... More about our weather records

Advertising

Timmins weather history for previous 24 hours

 ConditionsComfort  
Time TempWeatherWind HumidityBarometerVisibility
6:00 AM
Nov 24
37 °FLight rain. Fog.9 mph100%29.13 "Hg3 mi
5:00 AM37 °FDrizzle. Fog.10 mph100%29.21 "Hg3 mi
4:00 AM39 °FDrizzle. Fog.7 mph93%29.28 "Hg3 mi
3:00 AM39 °FDrizzle. Fog.7 mph100%29.34 "Hg3 mi
2:00 AM37 °FDrizzle. Fog.7 mph100%29.40 "Hg3 mi
1:00 AM39 °FFog.8 mph93%29.45 "Hg3 mi
12:00 AM39 °FDrizzle. Fog.8 mph93%29.50 "Hg3 mi
11:00 PM
Nov 23
39 °FDrizzle. Fog.10 mph100%29.53 "Hg3 mi
10:00 PM39 °FDrizzle. Fog.9 mph100%29.56 "Hg3 mi
9:00 PM39 °FDrizzle. Fog.12 mph100%29.58 "Hg3 mi
8:00 PM39 °FDrizzle. Fog.10 mph100%29.59 "Hg3 mi
7:00 PM39 °FDrizzle. Fog.9 mph100%29.61 "Hg2 mi
6:00 PM37 °FLight rain. Fog.6 mph100%29.62 "Hg6 mi
5:00 PM37 °FLight rain. Fog.6 mph100%29.64 "Hg3 mi
4:00 PM37 °FLight rain. Fog.7 mph100%29.64 "Hg2 mi
3:00 PM37 °FLight rain. Fog.8 mph100%29.66 "Hg2 mi
2:00 PM36 °FLight rain. Fog.9 mph100%29.68 "Hg3 mi
1:00 PM36 °FOvercast.8 mph93%29.73 "Hg15 mi
12:00 PM36 °FFog.8 mph87%29.74 "Hg6 mi
11:00 AM34 °FFog.8 mph93%29.77 "Hg5 mi
10:00 AM34 °FFog.8 mph93%29.80 "Hg5 mi
9:00 AM32 °FIce fog.9 mph93%29.80 "Hg5 mi
8:00 AM32 °FIce fog.12 mph100%29.81 "Hg4 mi
7:00 AM32 °FIce fog.5 mph100%29.81 "Hg3 mi
Weather by CustomWeather, © 2014

See weather overviewHow to use our weather pages